Simultaneous Nadir Overpasses (SNOs) Predictions

Prediction of SNOs between GOES-16 and NPP Satellite Orbit:

Table of predicted SNOs for the next 14.0 days since TLE Epoch: 6/15/2019
Index Date Time (GOES-16) GOES-16 Lat,Lon NPP Lat,Lon Distance(km) Time Diff (sec)
1 06/16/2019 06:32:30 0.01, -75.18 0.30, -76.50 149.55 80
2 06/17/2019 06:11:05 0.01, -75.17 -0.70, -71.96 365.69 80
3 06/18/2019 18:33:02 -0.00, -75.16 -0.46, -77.28 240.89 80
4 06/19/2019 18:16:58 -0.00, -75.15 0.54, -72.74 274.79 80
5 06/21/2019 06:38:46 -0.00, -75.15 0.64, -78.01 325.88 80
6 06/22/2019 06:17:22 -0.01, -75.15 -0.36, -73.48 190.11 80
7 06/23/2019 18:39:19 0.01, -75.14 -0.80, -78.79 415.36 80
8 06/24/2019 18:23:15 0.01, -75.15 0.21, -74.26 101.19 80
9 06/26/2019 06:45:03 -0.01, -75.16 0.98, -79.53 497.97 80
10 06/27/2019 06:23:39 -0.01, -75.16 -0.02, -74.99 19.05 80




NCC Satellite Simultaneous Nadir Overpasses (SNOs) Prediction Service
